1574463626,2019-11-23 00:00,593.00,-14
1574463686,2019-11-23 00:01,593.00,-15
1574463746,2019-11-23 00:02,590.00,-14
1574463807,2019-11-23 00:03,589.00,-15
1574463867,2019-11-23 00:04,589.00,-14
1574463927,2019-11-23 00:05,590.00,-15
1574463987,2019-11-23 00:06,587.00,-14
1574464048,2019-11-23 00:07,585.00,-14
1574464108,2019-11-23 00:08,583.00,-14
1574464168,2019-11-23 00:09,583.00,-17
1574464231,2019-11-23 00:10,581.00,-21
1574464291,2019-11-23 00:11,578.00,-13
1574464352,2019-11-23 00:12,579.00,-13
1574464472,2019-11-23 00:14,577.00,-14
1574464592,2019-11-23 00:16,574.00,-15
1574464652,2019-11-23 00:17,573.00,-13
1574464712,2019-11-23 00:18,572.00,-16
1574464772,2019-11-23 00:19,573.00,-16
1574464833,2019-11-23 00:20,570.00,-16
1574464893,2019-11-23 00:21,570.00,-17
1574464953,2019-11-23 00:22,568.00,-15
1574465013,2019-11-23 00:23,565.00,-13
1574465073,2019-11-23 00:24,566.00,-15
1574465253,2019-11-23 00:27,561.00,-14
1574465314,2019-11-23 00:28,562.00,-13
1574465377,2019-11-23 00:29,561.00,-18
1574465437,2019-11-23 00:30,559.00,-16
1574465497,2019-11-23 00:31,559.00,-22
1574465558,2019-11-23 00:32,557.00,-15
1574465618,2019-11-23 00:33,558.00,-14
1574465678,2019-11-23 00:34,556.00,-21
1574465738,2019-11-23 00:35,555.00,-21
1574465798,2019-11-23 00:36,553.00,-15
1574465858,2019-11-23 00:37,551.00,-16
1574465979,2019-11-23 00:39,551.00,-18
1574466099,2019-11-23 00:41,550.00,-13
1574466159,2019-11-23 00:42,549.00,-13
1574466220,2019-11-23 00:43,548.00,-13
1574466280,2019-11-23 00:44,545.00,-16
1574466340,2019-11-23 00:45,545.00,-14
1574466400,2019-11-23 00:46,543.00,-14
1574466461,2019-11-23 00:47,542.00,-14
1574466521,2019-11-23 00:48,543.00,-16
1574466701,2019-11-23 00:51,541.00,-13
1574466761,2019-11-23 00:52,539.00,-19
1574466941,2019-11-23 00:55,537.00,-15
1574467002,2019-11-23 00:56,534.00,-13
1574467062,2019-11-23 00:57,536.00,-17
1574467122,2019-11-23 00:58,534.00,-15
1574467183,2019-11-23 00:59,534.00,-14
1574467243,2019-11-23 01:00,532.00,-15
1574467303,2019-11-23 01:01,531.00,-14
1574467363,2019-11-23 01:02,532.00,-15
1574467424,2019-11-23 01:03,532.00,-13
1574467484,2019-11-23 01:04,528.00,-15
1574467544,2019-11-23 01:05,528.00,-18
1574467605,2019-11-23 01:06,526.00,-15
1574467665,2019-11-23 01:07,528.00,-14
1574467725,2019-11-23 01:08,528.00,-16
1574467785,2019-11-23 01:09,526.00,-16
1574467845,2019-11-23 01:10,524.00,-15
1574467906,2019-11-23 01:11,524.00,-14
1574467966,2019-11-23 01:12,524.00,-15
1574468026,2019-11-23 01:13,525.00,-14
1574468146,2019-11-23 01:15,519.00,-14
1574468207,2019-11-23 01:16,521.00,-19
1574468267,2019-11-23 01:17,520.00,-13
1574468327,2019-11-23 01:18,519.00,-18
1574468387,2019-11-23 01:19,520.00,-20
1574468447,2019-11-23 01:20,518.00,-15
1574468508,2019-11-23 01:21,518.00,-15
1574468568,2019-11-23 01:22,517.00,-13
1574468628,2019-11-23 01:23,515.00,-15
1574468689,2019-11-23 01:24,513.00,-15
1574468749,2019-11-23 01:25,514.00,-14
1574468809,2019-11-23 01:26,513.00,-23
1574468869,2019-11-23 01:27,514.00,-14
1574468930,2019-11-23 01:28,512.00,-15
1574468990,2019-11-23 01:29,510.00,-15
1574469050,2019-11-23 01:30,512.00,-15
1574469110,2019-11-23 01:31,509.00,-25
1574469171,2019-11-23 01:32,511.00,-13
1574469231,2019-11-23 01:33,509.00,-13
1574469291,2019-11-23 01:34,506.00,-15
1574469352,2019-11-23 01:35,506.00,-15
1574469412,2019-11-23 01:36,506.00,-13
1574469592,2019-11-23 01:39,505.00,-14
1574469652,2019-11-23 01:40,502.00,-16
1574469712,2019-11-23 01:41,502.00,-15
1574469833,2019-11-23 01:43,502.00,-18
1574469893,2019-11-23 01:44,500.00,-14
1574470016,2019-11-23 01:46,500.00,-13
1574470136,2019-11-23 01:48,496.00,-19
1574470197,2019-11-23 01:49,498.00,-15
1574470257,2019-11-23 01:50,496.00,-14
1574470377,2019-11-23 01:52,497.00,-13
1574470437,2019-11-23 01:53,497.00,-14
1574470498,2019-11-23 01:54,494.00,-16
1574470558,2019-11-23 01:55,495.00,-14
1574470618,2019-11-23 01:56,493.00,-20
1574470678,2019-11-23 01:57,495.00,-22
1574470739,2019-11-23 01:58,492.00,-20
1574470799,2019-11-23 01:59,493.00,-15
1574470859,2019-11-23 02:00,492.00,-13
1574470920,2019-11-23 02:02,491.00,-13
1574470980,2019-11-23 02:03,491.00,-16
1574471040,2019-11-23 02:04,491.00,-13
1574471100,2019-11-23 02:05,491.00,-14
1574471161,2019-11-23 02:06,490.00,-15
1574471224,2019-11-23 02:07,489.00,-14
1574471284,2019-11-23 02:08,490.00,-18
1574471345,2019-11-23 02:09,488.00,-13
1574471405,2019-11-23 02:10,486.00,-14
1574471465,2019-11-23 02:11,485.00,-15
1574471525,2019-11-23 02:12,486.00,-16
1574471586,2019-11-23 02:13,486.00,-17
1574471646,2019-11-23 02:14,485.00,-17
1574471706,2019-11-23 02:15,486.00,-16
1574471766,2019-11-23 02:16,485.00,-19
1574471827,2019-11-23 02:17,483.00,-15
1574471887,2019-11-23 02:18,486.00,-18
1574471950,2019-11-23 02:19,485.00,-12
1574472010,2019-11-23 02:20,482.00,-13
1574472071,2019-11-23 02:21,481.00,-15
1574472131,2019-11-23 02:22,481.00,-15
1574472191,2019-11-23 02:23,483.00,-13
1574472252,2019-11-23 02:24,481.00,-14
1574472312,2019-11-23 02:25,479.00,-14
1574472372,2019-11-23 02:26,480.00,-13
1574472432,2019-11-23 02:27,479.00,-14
1574472493,2019-11-23 02:28,479.00,-14
1574472553,2019-11-23 02:29,480.00,-15
1574472613,2019-11-23 02:30,479.00,-15
1574472673,2019-11-23 02:31,477.00,-15
1574472737,2019-11-23 02:32,479.00,-15
1574472797,2019-11-23 02:33,478.00,-15
1574472857,2019-11-23 02:34,476.00,-15
1574472917,2019-11-23 02:35,476.00,-20
1574472978,2019-11-23 02:36,475.00,-13
1574473038,2019-11-23 02:37,475.00,-15
1574473098,2019-11-23 02:38,475.00,-13
1574473159,2019-11-23 02:39,475.00,-16
1574473219,2019-11-23 02:40,473.00,-15
1574473279,2019-11-23 02:41,473.00,-15
1574473339,2019-11-23 02:42,473.00,-14
1574473400,2019-11-23 02:43,473.00,-19
1574473460,2019-11-23 02:44,472.00,-17
1574473520,2019-11-23 02:45,472.00,-14
1574473581,2019-11-23 02:46,471.00,-14
1574473641,2019-11-23 02:47,471.00,-14
1574473701,2019-11-23 02:48,470.00,-14
1574473761,2019-11-23 02:49,469.00,-15
1574473822,2019-11-23 02:50,469.00,-16
1574473882,2019-11-23 02:51,470.00,-15
1574473942,2019-11-23 02:52,470.00,-15
1574474002,2019-11-23 02:53,468.00,-13
1574474063,2019-11-23 02:54,468.00,-14
1574474123,2019-11-23 02:55,468.00,-15
1574474183,2019-11-23 02:56,468.00,-26
1574474244,2019-11-23 02:57,468.00,-14
1574474304,2019-11-23 02:58,467.00,-14
1574474364,2019-11-23 02:59,467.00,-18
1574474424,2019-11-23 03:00,464.00,-16
1574474485,2019-11-23 03:01,465.00,-22
1574474545,2019-11-23 03:02,465.00,-16
1574474605,2019-11-23 03:03,465.00,-15
1574474665,2019-11-23 03:04,464.00,-13
1574474726,2019-11-23 03:05,465.00,-15
1574474786,2019-11-23 03:06,464.00,-14
1574474846,2019-11-23 03:07,465.00,-17
1574474907,2019-11-23 03:08,463.00,-22
1574474967,2019-11-23 03:09,461.00,-14
1574475027,2019-11-23 03:10,462.00,-15
1574475087,2019-11-23 03:11,460.00,-13
1574475148,2019-11-23 03:12,461.00,-14
1574475208,2019-11-23 03:13,461.00,-14
1574475328,2019-11-23 03:15,459.00,-13
1574475449,2019-11-23 03:17,461.00,-14
1574475509,2019-11-23 03:18,458.00,-13
1574475572,2019-11-23 03:19,460.00,-15
1574475632,2019-11-23 03:20,458.00,-14
1574475692,2019-11-23 03:21,458.00,-14
1574475752,2019-11-23 03:22,459.00,-16
1574475813,2019-11-23 03:23,459.00,-19
1574475873,2019-11-23 03:24,459.00,-19
1574475933,2019-11-23 03:25,456.00,-15
1574475993,2019-11-23 03:26,458.00,-15
1574476053,2019-11-23 03:27,458.00,-14
1574476114,2019-11-23 03:28,455.00,-15
1574476174,2019-11-23 03:29,455.00,-17
1574476234,2019-11-23 03:30,457.00,-13
1574476295,2019-11-23 03:31,457.00,-13
1574476355,2019-11-23 03:32,455.00,-15
1574476415,2019-11-23 03:33,456.00,-15
1574476475,2019-11-23 03:34,453.00,-18
1574476536,2019-11-23 03:35,456.00,-19
1574476656,2019-11-23 03:37,453.00,-16
1574476716,2019-11-23 03:38,455.00,-17
1574476837,2019-11-23 03:40,456.00,-17
1574476897,2019-11-23 03:41,453.00,-17
1574476957,2019-11-23 03:42,454.00,-14
1574477018,2019-11-23 03:43,452.00,-16
1574477078,2019-11-23 03:44,453.00,-14
1574477138,2019-11-23 03:45,452.00,-13
1574477258,2019-11-23 03:47,450.00,-15
1574477319,2019-11-23 03:48,453.00,-14
1574477379,2019-11-23 03:49,452.00,-20
1574477439,2019-11-23 03:50,452.00,-14
1574477502,2019-11-23 03:51,451.00,-15
1574477562,2019-11-23 03:52,454.00,-15
1574477622,2019-11-23 03:53,452.00,-15
1574477742,2019-11-23 03:55,449.00,-15
1574477803,2019-11-23 03:56,448.00,-15
1574477863,2019-11-23 03:57,450.00,-13
1574477983,2019-11-23 03:59,449.00,-14
1574478043,2019-11-23 04:00,450.00,-16
1574478104,2019-11-23 04:01,449.00,-18
1574478164,2019-11-23 04:02,449.00,-16
1574478284,2019-11-23 04:04,448.00,-16
1574478345,2019-11-23 04:05,447.00,-14
1574478405,2019-11-23 04:06,448.00,-13
1574478465,2019-11-23 04:07,446.00,-17
1574478525,2019-11-23 04:08,448.00,-19
1574478646,2019-11-23 04:10,444.00,-13
1574478706,2019-11-23 04:11,447.00,-14
1574478766,2019-11-23 04:12,446.00,-12
1574478826,2019-11-23 04:13,446.00,-14
1574478886,2019-11-23 04:14,444.00,-15
1574478947,2019-11-23 04:15,445.00,-16
1574479007,2019-11-23 04:16,445.00,-14
1574479067,2019-11-23 04:17,445.00,-15
1574479127,2019-11-23 04:18,446.00,-12
1574479188,2019-11-23 04:19,444.00,-24
1574479248,2019-11-23 04:20,445.00,-14
1574479308,2019-11-23 04:21,444.00,-14
1574479368,2019-11-23 04:22,443.00,-15
1574479429,2019-11-23 04:23,445.00,-14
1574479489,2019-11-23 04:24,446.00,-15
1574479549,2019-11-23 04:25,444.00,-16
1574479609,2019-11-23 04:26,443.00,-13
1574479670,2019-11-23 04:27,443.00,-13
1574479730,2019-11-23 04:28,442.00,-13
1574479790,2019-11-23 04:29,443.00,-14
1574479850,2019-11-23 04:30,445.00,-14
1574479911,2019-11-23 04:31,441.00,-15
1574479971,2019-11-23 04:32,442.00,-16
1574480031,2019-11-23 04:33,441.00,-15
1574480092,2019-11-23 04:34,442.00,-15
1574480152,2019-11-23 04:35,443.00,-13
1574480212,2019-11-23 04:36,441.00,-15
1574480272,2019-11-23 04:37,442.00,-15
1574480333,2019-11-23 04:38,441.00,-16
1574480453,2019-11-23 04:40,442.00,-18
1574480513,2019-11-23 04:41,441.00,-15
1574480573,2019-11-23 04:42,443.00,-13
1574480633,2019-11-23 04:43,441.00,-12
1574480754,2019-11-23 04:45,440.00,-15
1574480814,2019-11-23 04:46,438.00,-14
1574480874,2019-11-23 04:47,438.00,-14
1574480934,2019-11-23 04:48,439.00,-16
1574480995,2019-11-23 04:49,440.00,-14
1574481055,2019-11-23 04:50,438.00,-14
1574481115,2019-11-23 04:51,439.00,-15
1574481175,2019-11-23 04:52,439.00,-19
1574481236,2019-11-23 04:53,440.00,-16
1574481296,2019-11-23 04:54,438.00,-14
1574481356,2019-11-23 04:55,438.00,-15
1574481416,2019-11-23 04:56,439.00,-15
1574481476,2019-11-23 04:57,439.00,-18
1574481537,2019-11-23 04:58,438.00,-14
1574481657,2019-11-23 05:00,438.00,-22
1574481717,2019-11-23 05:01,439.00,-14
1574481777,2019-11-23 05:02,436.00,-14
1574481897,2019-11-23 05:04,437.00,-15
1574481958,2019-11-23 05:05,437.00,-13
1574482018,2019-11-23 05:06,437.00,-19
1574482078,2019-11-23 05:07,437.00,-15
1574482138,2019-11-23 05:08,435.00,-14
1574482199,2019-11-23 05:09,437.00,-15
1574482259,2019-11-23 05:10,436.00,-14
1574482319,2019-11-23 05:11,438.00,-14
1574482379,2019-11-23 05:12,436.00,-13
1574482440,2019-11-23 05:14,434.00,-14
1574482500,2019-11-23 05:15,435.00,-14
1574482560,2019-11-23 05:16,436.00,-16
1574482620,2019-11-23 05:17,434.00,-16
1574482680,2019-11-23 05:18,438.00,-15
1574482741,2019-11-23 05:19,434.00,-13
1574482801,2019-11-23 05:20,434.00,-19
1574482861,2019-11-23 05:21,436.00,-16
1574482921,2019-11-23 05:22,435.00,-15
1574482982,2019-11-23 05:23,433.00,-13
1574483102,2019-11-23 05:25,434.00,-15
1574483162,2019-11-23 05:26,433.00,-15
1574483225,2019-11-23 05:27,434.00,-13
1574483286,2019-11-23 05:28,435.00,-15
1574483346,2019-11-23 05:29,433.00,-16
1574483406,2019-11-23 05:30,432.00,-15
1574483466,2019-11-23 05:31,434.00,-15
1574483527,2019-11-23 05:32,435.00,-14
1574483587,2019-11-23 05:33,433.00,-13
1574483647,2019-11-23 05:34,434.00,-14
1574483707,2019-11-23 05:35,432.00,-14
1574483768,2019-11-23 05:36,433.00,-20
1574483828,2019-11-23 05:37,432.00,-15
1574483888,2019-11-23 05:38,433.00,-15
1574483948,2019-11-23 05:39,435.00,-12
1574484008,2019-11-23 05:40,433.00,-15
1574484068,2019-11-23 05:41,433.00,-15
1574484128,2019-11-23 05:42,431.00,-14
1574484189,2019-11-23 05:43,432.00,-15
1574484309,2019-11-23 05:45,432.00,-17
1574484369,2019-11-23 05:46,430.00,-16
1574484429,2019-11-23 05:47,433.00,-18
1574484490,2019-11-23 05:48,433.00,-22
1574484550,2019-11-23 05:49,430.00,-15
1574484610,2019-11-23 05:50,433.00,-13
1574484731,2019-11-23 05:52,431.00,-14
1574484791,2019-11-23 05:53,433.00,-15
1574484851,2019-11-23 05:54,432.00,-22
1574484911,2019-11-23 05:55,429.00,-14
1574484971,2019-11-23 05:56,430.00,-13
1574485032,2019-11-23 05:57,432.00,-14
1574485092,2019-11-23 05:58,432.00,-19
1574485152,2019-11-23 05:59,431.00,-16
1574485212,2019-11-23 06:00,429.00,-15
1574485273,2019-11-23 06:01,430.00,-13
1574485333,2019-11-23 06:02,428.00,-14
1574485393,2019-11-23 06:03,430.00,-22
1574485453,2019-11-23 06:04,429.00,-17
1574485574,2019-11-23 06:06,431.00,-14
1574485634,2019-11-23 06:07,430.00,-15
1574485694,2019-11-23 06:08,430.00,-13
1574485754,2019-11-23 06:09,429.00,-15
1574485874,2019-11-23 06:11,429.00,-16
1574485934,2019-11-23 06:12,428.00,-16
1574485995,2019-11-23 06:13,428.00,-13
1574486055,2019-11-23 06:14,428.00,-15
1574486235,2019-11-23 06:17,429.00,-13
1574486296,2019-11-23 06:18,428.00,-15
1574486416,2019-11-23 06:20,430.00,-14
1574486477,2019-11-23 06:21,428.00,-16
1574486537,2019-11-23 06:22,427.00,-14
1574486597,2019-11-23 06:23,429.00,-14
1574486657,2019-11-23 06:24,427.00,-18
1574486717,2019-11-23 06:25,426.00,-15
1574486777,2019-11-23 06:26,428.00,-14
1574486838,2019-11-23 06:27,427.00,-15
1574486898,2019-11-23 06:28,426.00,-15
1574486958,2019-11-23 06:29,427.00,-17
1574487018,2019-11-23 06:30,427.00,-13
1574487078,2019-11-23 06:31,429.00,-26
1574487138,2019-11-23 06:32,427.00,-12
1574487198,2019-11-23 06:33,426.00,-17
1574487258,2019-11-23 06:34,428.00,-14
1574487318,2019-11-23 06:35,428.00,-15
1574487379,2019-11-23 06:36,427.00,-12
1574487439,2019-11-23 06:37,429.00,-19
1574487499,2019-11-23 06:38,428.00,-14
1574487559,2019-11-23 06:39,428.00,-16
1574487619,2019-11-23 06:40,427.00,-14
1574487679,2019-11-23 06:41,428.00,-14
1574487739,2019-11-23 06:42,426.00,-15
1574487799,2019-11-23 06:43,427.00,-14
1574487859,2019-11-23 06:44,429.00,-15
1574487980,2019-11-23 06:46,428.00,-14
1574488040,2019-11-23 06:47,428.00,-20
1574488100,2019-11-23 06:48,425.00,-16
1574488161,2019-11-23 06:49,428.00,-13
1574488221,2019-11-23 06:50,427.00,-15
1574488281,2019-11-23 06:51,424.00,-16
1574488341,2019-11-23 06:52,427.00,-22
1574488401,2019-11-23 06:53,424.00,-16
1574488462,2019-11-23 06:54,426.00,-16
1574488522,2019-11-23 06:55,425.00,-13
1574488582,2019-11-23 06:56,428.00,-16
1574488642,2019-11-23 06:57,427.00,-14
1574488703,2019-11-23 06:58,426.00,-16
1574488763,2019-11-23 06:59,425.00,-13
1574488823,2019-11-23 07:00,424.00,-20
1574488883,2019-11-23 07:01,424.00,-14
1574488943,2019-11-23 07:02,427.00,-16
1574489066,2019-11-23 07:04,425.00,-13
1574489127,2019-11-23 07:05,424.00,-14
1574489187,2019-11-23 07:06,425.00,-13
1574489247,2019-11-23 07:07,426.00,-24
1574489307,2019-11-23 07:08,425.00,-15
1574489367,2019-11-23 07:09,426.00,-14
1574489428,2019-11-23 07:10,426.00,-16
1574489488,2019-11-23 07:11,423.00,-13
1574489548,2019-11-23 07:12,424.00,-14
1574489608,2019-11-23 07:13,425.00,-21
1574489669,2019-11-23 07:14,424.00,-14
1574489729,2019-11-23 07:15,424.00,-23
1574489789,2019-11-23 07:16,426.00,-14
1574489849,2019-11-23 07:17,424.00,-17
1574489910,2019-11-23 07:18,423.00,-16
1574489970,2019-11-23 07:19,426.00,-14
1574490030,2019-11-23 07:20,426.00,-14
1574490090,2019-11-23 07:21,424.00,-20
1574490150,2019-11-23 07:22,423.00,-16
1574490211,2019-11-23 07:23,424.00,-17
1574490271,2019-11-23 07:24,425.00,-16
1574490331,2019-11-23 07:25,424.00,-14
1574490391,2019-11-23 07:26,424.00,-16
1574490452,2019-11-23 07:27,422.00,-14
1574490512,2019-11-23 07:28,424.00,-15
1574490572,2019-11-23 07:29,425.00,-17
1574490692,2019-11-23 07:31,423.00,-15
1574490753,2019-11-23 07:32,425.00,-20
1574490813,2019-11-23 07:33,422.00,-16
1574490873,2019-11-23 07:34,422.00,-12
1574490933,2019-11-23 07:35,424.00,-15
1574490994,2019-11-23 07:36,424.00,-19
1574491054,2019-11-23 07:37,422.00,-14
1574491114,2019-11-23 07:38,424.00,-14
1574491174,2019-11-23 07:39,426.00,-15
1574491234,2019-11-23 07:40,421.00,-16
1574491295,2019-11-23 07:41,424.00,-20
1574491355,2019-11-23 07:42,424.00,-16
1574491415,2019-11-23 07:43,424.00,-15
1574491475,2019-11-23 07:44,423.00,-15
1574491535,2019-11-23 07:45,424.00,-16
1574491596,2019-11-23 07:46,422.00,-27
1574491656,2019-11-23 07:47,421.00,-18
1574491716,2019-11-23 07:48,425.00,-13
1574491837,2019-11-23 07:50,424.00,-14
1574491897,2019-11-23 07:51,423.00,-14
1574491957,2019-11-23 07:52,423.00,-13
1574492017,2019-11-23 07:53,421.00,-16
1574492078,2019-11-23 07:54,422.00,-15
1574492138,2019-11-23 07:55,423.00,-15
1574492198,2019-11-23 07:56,422.00,-17
1574492318,2019-11-23 07:58,424.00,-13
1574492379,2019-11-23 07:59,421.00,-12
1574492439,2019-11-23 08:00,424.00,-14
1574492499,2019-11-23 08:01,423.00,-15
1574492619,2019-11-23 08:03,424.00,-18
1574492679,2019-11-23 08:04,422.00,-21
1574492739,2019-11-23 08:05,422.00,-15
1574492799,2019-11-23 08:06,421.00,-15
1574492860,2019-11-23 08:07,423.00,-16
1574492920,2019-11-23 08:08,424.00,-17
1574492980,2019-11-23 08:09,422.00,-14
1574493040,2019-11-23 08:10,423.00,-15
1574493101,2019-11-23 08:11,422.00,-16
1574493161,2019-11-23 08:12,423.00,-15
1574493221,2019-11-23 08:13,423.00,-13
1574493461,2019-11-23 08:17,421.00,-13
1574493521,2019-11-23 08:18,422.00,-15
1574493582,2019-11-23 08:19,424.00,-14
1574493642,2019-11-23 08:20,421.00,-13
1574493702,2019-11-23 08:21,422.00,-14
1574493762,2019-11-23 08:22,423.00,-18
1574493823,2019-11-23 08:23,421.00,-15
1574493883,2019-11-23 08:24,423.00,-17
1574493943,2019-11-23 08:25,421.00,-20
1574494003,2019-11-23 08:26,424.00,-14
1574494064,2019-11-23 08:27,423.00,-14
1574494124,2019-11-23 08:28,423.00,-15
1574494185,2019-11-23 08:29,421.00,-15
1574494305,2019-11-23 08:31,421.00,-13
1574494365,2019-11-23 08:32,421.00,-14
1574494425,2019-11-23 08:33,420.00,-15
1574494666,2019-11-23 08:37,421.00,-14
1574494726,2019-11-23 08:38,422.00,-15
1574494786,2019-11-23 08:39,421.00,-13
1574494846,2019-11-23 08:40,422.00,-15
1574494907,2019-11-23 08:41,424.00,-16
1574494967,2019-11-23 08:42,421.00,-18
1574495028,2019-11-23 08:43,422.00,-14
1574495088,2019-11-23 08:44,420.00,-24
1574495148,2019-11-23 08:45,421.00,-18
1574495208,2019-11-23 08:46,422.00,-16
1574495268,2019-11-23 08:47,421.00,-15
1574495329,2019-11-23 08:48,422.00,-15
1574495450,2019-11-23 08:50,422.00,-25
1574495510,2019-11-23 08:51,423.00,-13
1574495630,2019-11-23 08:53,422.00,-13
1574495691,2019-11-23 08:54,420.00,-19
1574495812,2019-11-23 08:56,421.00,-13
1574495873,2019-11-23 08:57,423.00,-14
1574495933,2019-11-23 08:58,422.00,-14
1574495993,2019-11-23 08:59,420.00,-14
1574496054,2019-11-23 09:00,419.00,-18
1574496114,2019-11-23 09:01,422.00,-14
1574496174,2019-11-23 09:02,422.00,-13
1574496235,2019-11-23 09:03,419.00,-18
1574496355,2019-11-23 09:05,422.00,-14
1574496415,2019-11-23 09:06,422.00,-14
1574496476,2019-11-23 09:07,419.00,-13
1574496536,2019-11-23 09:08,422.00,-15
1574496596,2019-11-23 09:09,422.00,-12
1574496656,2019-11-23 09:10,421.00,-15
1574496777,2019-11-23 09:12,421.00,-15
1574496837,2019-11-23 09:13,419.00,-15
1574496897,2019-11-23 09:14,419.00,-23
1574496958,2019-11-23 09:15,422.00,-15
1574497018,2019-11-23 09:16,420.00,-16
1574497078,2019-11-23 09:17,420.00,-15
1574497139,2019-11-23 09:18,420.00,-15
1574497199,2019-11-23 09:19,422.00,-20
1574497259,2019-11-23 09:20,422.00,-14
1574497320,2019-11-23 09:22,421.00,-15
1574497380,2019-11-23 09:23,422.00,-15
1574497500,2019-11-23 09:25,421.00,-14
1574497560,2019-11-23 09:26,422.00,-13
1574497620,2019-11-23 09:27,422.00,-14
1574497680,2019-11-23 09:28,421.00,-17
1574497740,2019-11-23 09:29,421.00,-15
1574497800,2019-11-23 09:30,421.00,-15
1574497860,2019-11-23 09:31,420.00,-13
1574497981,2019-11-23 09:33,420.00,-16
1574498041,2019-11-23 09:34,419.00,-16
1574498101,2019-11-23 09:35,420.00,-13
1574498161,2019-11-23 09:36,420.00,-15
1574498221,2019-11-23 09:37,421.00,-14
1574498282,2019-11-23 09:38,420.00,-21
1574498342,2019-11-23 09:39,421.00,-14
1574498402,2019-11-23 09:40,422.00,-15
1574498462,2019-11-23 09:41,421.00,-13
1574498522,2019-11-23 09:42,422.00,-13
1574498583,2019-11-23 09:43,423.00,-23
1574498643,2019-11-23 09:44,422.00,-14
1574498704,2019-11-23 09:45,420.00,-18
1574498764,2019-11-23 09:46,421.00,-16
1574498824,2019-11-23 09:47,419.00,-14
1574498885,2019-11-23 09:48,421.00,-16
1574498945,2019-11-23 09:49,420.00,-15
1574499005,2019-11-23 09:50,421.00,-13
1574499065,2019-11-23 09:51,421.00,-15
1574499126,2019-11-23 09:52,421.00,-15
1574499186,2019-11-23 09:53,418.00,-15
1574499246,2019-11-23 09:54,421.00,-15
1574499307,2019-11-23 09:55,420.00,-13
1574499367,2019-11-23 09:56,420.00,-13
1574499427,2019-11-23 09:57,419.00,-24
1574499488,2019-11-23 09:58,420.00,-14
1574499548,2019-11-23 09:59,420.00,-15
1574499609,2019-11-23 10:00,420.00,-15
1574499669,2019-11-23 10:01,420.00,-15
1574499729,2019-11-23 10:02,420.00,-22
1574499790,2019-11-23 10:03,418.00,-15
1574499850,2019-11-23 10:04,419.00,-16
1574499911,2019-11-23 10:05,419.00,-21
1574499971,2019-11-23 10:06,421.00,-16
1574500031,2019-11-23 10:07,420.00,-15
1574500092,2019-11-23 10:08,422.00,-17
1574500152,2019-11-23 10:09,418.00,-14
1574500212,2019-11-23 10:10,421.00,-14
1574500273,2019-11-23 10:11,422.00,-14
1574500333,2019-11-23 10:12,421.00,-13
1574500393,2019-11-23 10:13,420.00,-17
1574500454,2019-11-23 10:14,420.00,-13
1574500514,2019-11-23 10:15,418.00,-15
1574500574,2019-11-23 10:16,421.00,-16
1574500635,2019-11-23 10:17,418.00,-15
1574500695,2019-11-23 10:18,420.00,-14
1574500756,2019-11-23 10:19,420.00,-13
1574500816,2019-11-23 10:20,419.00,-15
1574500877,2019-11-23 10:21,420.00,-17
1574500937,2019-11-23 10:22,418.00,-15
1574500997,2019-11-23 10:23,420.00,-14
1574501057,2019-11-23 10:24,419.00,-16
1574501118,2019-11-23 10:25,402.00,-14
1574501178,2019-11-23 10:26,400.00,-16
1574501238,2019-11-23 10:27,402.00,-14
1574501299,2019-11-23 10:28,399.00,-16
1574501359,2019-11-23 10:29,402.00,-14
1574501419,2019-11-23 10:30,399.00,-16
1574501480,2019-11-23 10:31,400.00,-15
1574501540,2019-11-23 10:32,400.00,-14
1574501601,2019-11-23 10:33,402.00,-14
1574501661,2019-11-23 10:34,401.00,-21
1574501721,2019-11-23 10:35,402.00,-13
1574501782,2019-11-23 10:36,402.00,-15
1574501842,2019-11-23 10:37,400.00,-15
1574501902,2019-11-23 10:38,402.00,-14
1574501972,2019-11-23 10:39,401.00,-16
1574502023,2019-11-23 10:40,400.00,-14
1574502083,2019-11-23 10:41,400.00,-16
1574502144,2019-11-23 10:42,403.00,-15
1574502205,2019-11-23 10:43,401.00,-17
1574502265,2019-11-23 10:44,402.00,-16
1574502325,2019-11-23 10:45,402.00,-22
1574502386,2019-11-23 10:46,404.00,-15
1574502506,2019-11-23 10:48,400.00,-16
1574502567,2019-11-23 10:49,402.00,-14
1574502627,2019-11-23 10:50,401.00,-14
1574502687,2019-11-23 10:51,402.00,-14
1574502868,2019-11-23 10:54,402.00,-15
1574502928,2019-11-23 10:55,404.00,-21
1574503109,2019-11-23 10:58,402.00,-13
1574503172,2019-11-23 10:59,403.00,-14
1574503232,2019-11-23 11:00,402.00,-23
1574503292,2019-11-23 11:01,401.00,-15
1574503353,2019-11-23 11:02,400.00,-21
1574503413,2019-11-23 11:03,403.00,-17
1574503474,2019-11-23 11:04,401.00,-17
1574503534,2019-11-23 11:05,400.00,-14
1574503594,2019-11-23 11:06,403.00,-17
1574503654,2019-11-23 11:07,402.00,-19
1574503715,2019-11-23 11:08,402.00,-16
1574503775,2019-11-23 11:09,402.00,-22
1574503835,2019-11-23 11:10,400.00,-14
1574503895,2019-11-23 11:11,400.00,-14
1574503956,2019-11-23 11:12,401.00,-17
1574504016,2019-11-23 11:13,401.00,-14
1574504077,2019-11-23 11:14,403.00,-14
1574504137,2019-11-23 11:15,401.00,-14
1574504197,2019-11-23 11:16,402.00,-16
1574504260,2019-11-23 11:17,403.00,-19
1574504321,2019-11-23 11:18,403.00,-18
1574504381,2019-11-23 11:19,403.00,-20
1574504442,2019-11-23 11:20,401.00,-15